Location: LDNL
(36.4545°S, 141.6685°E)
Time: 04:07:07
(UTC+11:00)

Vanguard 2 - Pass Details

Date: 11 August 2022
Orbit: 552 x 2934 km, 32.9° (Epoch: 06 October)

Event Time Altitude Azimuth Distance (km) Brightness Sun altitude
Rises 21:08:26 0° 268° (W) 5,984 13.0 -38.9°
Reaches altitude 10° 21:12:58 10° 270° (W) 4,627 12.1 -39.8°
Enters shadow 21:22:51 56° 299° (WNW) 1,773 9.3 -41.7°
Maximum altitude 21:24:43 67° 348° (NNW) 1,516 - -42.1°
Drops below altitude 10° 21:31:33 10° 69° (ENE) 2,790 - -43.4°
Sets 21:33:40 0° 72° (ENE) 3,520 - -43.8°
